Weather History for Belen, NM

Change the Weather History Date:

Sunday, September 22, 2013

  Actual Average (KABQ) Record (KABQ)
Temperature  
Mean Temperature 68 °F 67 °F  
Max Temperature 80 °F 79 °F 90 °F (1944)
Min Temperature 55 °F 56 °F 26 °F (1912)
Degree Days  
Heating Degree Days 0 1  
Month to date heating degree days 8  
Since 1 July heating degree days 8  
Cooling Degree Days 2 3  
Month to date cooling degree days 138  
Year to date cooling degree days 1295  
Growing Degree Days 18 (Base 50)    
Moisture  
Dew Point 53 °F    
Average Humidity 66    
Maximum Humidity 92    
Minimum Humidity 33    
Precipitation  
Precipitation 0.05 in 0.03 in 1.77 in (2010)
Month to date precipitation 0.78  
Year to date precipitation 7.06  
Snow  
Snow 0.00 in - - ()
Month to date snowfall  
Since 1 July snowfall  
Since 1 September snowfall  
Snow Depth -    
Sea Level Pressure  
Sea Level Pressure 29.90 in    
Wind  
Wind Speed 12 mph (South)    
Max Wind Speed 40 mph    
Max Gust Speed 62 mph    
Visibility 10 miles    
Events Rain , Thunderstorm    
T = Trace of Precipitation, MM = Missing Value Source: NWS Daily Summary

Daily Weather History Graph

Daily Weather History Graph

Search for Another Location

Airport:

Trip Planner

Search our weather history database for the weather conditions in past years. The results will help you decide how hot, cold, wet, or windy it might be!

Date:

Astronomy

Sep. 22, 2013 Rise Set
Actual Time 6:55 AM MDT 7:03 PM MDT
Civil Twilight 6:30 AM MDT 7:28 PM MDT
Nautical Twilight 6:01 AM MDT 7:58 PM MDT
Astronomical Twilight 5:31 AM MDT 8:27 PM MDT
Moon 9:05 PM MDT (9/22) 10:08 AM MDT (9/22)
Length of Visible Light 12h 58m
Length of Day
12h 08m
Waning Gibbous, 88% of the Moon is Illuminated
Sep 22
Waning Gibbous
Sep 26
Last Quarter
Oct 4
New
Oct 11
First Quarter
Oct 18
Full

Hourly Weather History & Observations

Time (MDT) Temp. Dew Point Humidity Pressure Visibility Wind Dir Wind Speed Gust Speed Precip Events Conditions
12:15 AM 59.2 °F 54.1 °F 83% 30.02 in 10.0 mi SSE 3.5 mph - N/A   Clear
12:35 AM 60.6 °F 54.9 °F 81% 30.02 in 10.0 mi SE 9.2 mph - N/A   Clear
12:55 AM 61.3 °F 55.2 °F 80% 30.01 in 10.0 mi SSE 8.1 mph - N/A   Clear
1:15 AM 61.2 °F 55.4 °F 81% 30.01 in 10.0 mi SE 8.1 mph - N/A   Clear
1:35 AM 61.2 °F 55.0 °F 80% 30.01 in 10.0 mi SE 9.2 mph - N/A   Clear
1:55 AM 61.0 °F 54.9 °F 80% 30.01 in 10.0 mi SE 9.2 mph - N/A   Clear
2:15 AM 60.8 °F 54.7 °F 80% 30.01 in 10.0 mi SSE 9.2 mph - N/A   Clear
2:35 AM 60.8 °F 54.7 °F 80% 30.00 in 10.0 mi SSE 9.2 mph - N/A   Clear
2:55 AM 60.8 °F 54.5 °F 80% 30.00 in 10.0 mi SSE 8.1 mph - N/A   Clear
3:15 AM 60.8 °F 54.7 °F 80% 29.99 in 10.0 mi SSE 10.4 mph - N/A   Clear
3:35 AM 60.8 °F 54.7 °F 80% 29.98 in 10.0 mi SSE 9.2 mph - N/A   Clear
3:55 AM 60.4 °F 54.5 °F 81% 29.98 in 10.0 mi SSE 8.1 mph - N/A   Clear
4:15 AM 60.1 °F 54.5 °F 82% 29.98 in 10.0 mi SSE 9.2 mph - N/A   Clear
4:35 AM 59.9 °F 54.5 °F 82% 29.98 in 10.0 mi SSE 9.2 mph - N/A   Clear
4:55 AM 59.2 °F 54.5 °F 84% 29.97 in 10.0 mi SSE 8.1 mph - N/A   Clear
5:15 AM 58.6 °F 54.5 °F 86% 29.97 in 10.0 mi SSE 4.6 mph - N/A   Clear
5:35 AM 57.2 °F 54.0 °F 89% 29.98 in 10.0 mi South 4.6 mph - N/A   Clear
5:55 AM 57.2 °F 54.0 °F 89% 29.97 in 10.0 mi SSE 8.1 mph - N/A   Clear
6:15 AM 56.3 °F 53.6 °F 91% 29.97 in 10.0 mi Calm Calm - N/A   Clear
6:35 AM 57.6 °F 54.3 °F 89% 29.98 in 10.0 mi SE 5.8 mph - N/A   Clear
6:55 AM 56.3 °F 53.8 °F 91% 29.99 in 10.0 mi Calm Calm - N/A   Clear
7:15 AM 55.9 °F 53.4 °F 91% 29.99 in 10.0 mi SSE 4.6 mph - N/A   Clear
7:35 AM 56.7 °F 54.3 °F 92% 29.98 in 10.0 mi SSE 6.9 mph - N/A   Clear
7:55 AM 60.1 °F 54.7 °F 82% 29.99 in 10.0 mi SSE 5.8 mph - N/A   Clear
8:15 AM 61.9 °F 54.9 °F 78% 29.99 in 10.0 mi SSE 6.9 mph - N/A   Clear
8:35 AM 64.0 °F 54.9 °F 72% 29.99 in 10.0 mi SSE 10.4 mph - N/A   Clear
8:55 AM 65.5 °F 54.5 °F 68% 30.00 in 10.0 mi South 13.8 mph - N/A   Clear
9:15 AM 66.9 °F 54.7 °F 65% 29.99 in 10.0 mi South 13.8 mph - N/A   Clear
9:35 AM 68.0 °F 54.5 °F 62% 29.98 in 10.0 mi South 15.0 mph - N/A   Clear
9:55 AM 68.9 °F 54.1 °F 59% 29.98 in 10.0 mi SSE 16.1 mph - N/A   Clear
10:15 AM 70.2 °F 53.8 °F 56% 29.98 in 10.0 mi South 16.1 mph 24.2 mph N/A   Clear
10:35 AM 71.6 °F 53.8 °F 53% 29.97 in 10.0 mi SSE 17.3 mph 23.0 mph N/A   Clear
10:55 AM 72.1 °F 53.4 °F 52% 29.96 in 10.0 mi SSE 19.6 mph 24.2 mph N/A   Clear
11:15 AM 73.2 °F 53.1 °F 49% 29.95 in 10.0 mi South 18.4 mph 23.0 mph N/A   Clear
11:35 AM 74.1 °F 52.3 °F 46% 29.94 in 10.0 mi South 18.4 mph - N/A   Clear
11:55 AM 74.7 °F 52.0 °F 45% 29.93 in 10.0 mi SSE 18.4 mph - N/A   Clear
12:15 PM 76.1 °F 51.3 °F 42% 29.92 in 10.0 mi South 19.6 mph 25.3 mph N/A   Clear
12:35 PM 76.8 °F 50.9 °F 40% 29.91 in 10.0 mi South 20.7 mph 24.2 mph N/A   Clear
12:55 PM 77.9 °F 50.7 °F 39% 29.90 in 10.0 mi South 18.4 mph 24.2 mph N/A   Clear
1:15 PM 77.9 °F 49.3 °F 37% 29.88 in 10.0 mi South 18.4 mph 25.3 mph N/A   Scattered Clouds
1:35 PM 79.2 °F 49.8 °F 36% 29.87 in 10.0 mi South 23.0 mph 29.9 mph N/A   Clear
1:55 PM 79.0 °F 50.2 °F 36% 29.84 in 10.0 mi South 29.9 mph 34.5 mph N/A   Clear
2:15 PM 79.5 °F 49.1 °F 34% 29.84 in 10.0 mi South 24.2 mph 33.4 mph N/A   Clear
2:35 PM 80.2 °F 48.9 °F 33% 29.82 in 10.0 mi South 25.3 mph 34.5 mph N/A   Clear
2:55 PM 80.6 °F 49.8 °F 34% 29.81 in 10.0 mi SSE 23.0 mph 33.4 mph N/A   Clear
3:15 PM 79.9 °F 49.6 °F 35% 29.80 in 10.0 mi South 26.5 mph 34.5 mph N/A   Clear
3:35 PM 80.6 °F 49.3 °F 33% 29.78 in 10.0 mi South 29.9 mph 35.7 mph N/A   Scattered Clouds
3:55 PM 80.1 °F 49.1 °F 34% 29.77 in 10.0 mi South 27.6 mph 34.5 mph N/A   Scattered Clouds
4:15 PM 78.6 °F 48.9 °F 35% 29.76 in 10.0 mi South 28.8 mph 34.5 mph N/A   Clear
4:35 PM 80.1 °F 48.9 °F 34% 29.75 in 10.0 mi South 29.9 mph 35.7 mph N/A   Clear
4:55 PM 79.7 °F 48.6 °F 33% 29.76 in 10.0 mi SSE 27.6 mph 38.0 mph N/A   Clear
5:15 PM 77.7 °F 49.1 °F 36% 29.74 in 10.0 mi South 26.5 mph 33.4 mph N/A   Clear
5:35 PM 76.8 °F 49.1 °F 38% 29.74 in 10.0 mi South 24.2 mph 33.4 mph N/A   Clear
5:55 PM 65.3 °F 55.4 °F 70% 29.82 in 3.0 mi West 40.3 mph 62.1 mph 0.02 in Rain , Thunderstorm Thunderstorms and Rain
6:15 PM 61.2 °F 56.8 °F 86% 29.80 in 10.0 mi SW 6.9 mph - 0.02 in Thunderstorm Thunderstorm
6:35 PM 62.6 °F 58.1 °F 85% 29.80 in 10.0 mi WSW 10.4 mph - 0.02 in   Mostly Cloudy
6:55 PM 63.0 °F 59.2 °F 87% 29.80 in 10.0 mi WSW 12.7 mph - 0.02 in   Overcast
7:15 PM 63.7 °F 59.4 °F 86% 29.79 in 10.0 mi WSW 6.9 mph - N/A   Overcast
7:35 PM 63.7 °F 59.2 °F 85% 29.77 in 10.0 mi South 4.6 mph - N/A   Mostly Cloudy
7:55 PM 63.5 °F 59.4 °F 86% 29.77 in 10.0 mi SE 3.5 mph - N/A   Scattered Clouds
8:15 PM 64.9 °F 58.3 °F 79% 29.77 in 10.0 mi SE 3.5 mph - N/A   Scattered Clouds
8:35 PM 64.4 °F 59.9 °F 85% 29.78 in 10.0 mi South 5.8 mph - N/A Thunderstorm Mostly Cloudy
8:55 PM 65.1 °F 61.2 °F 87% 29.80 in 10.0 mi WSW 8.1 mph - N/A   Overcast
9:15 PM 64.4 °F 56.3 °F 75% 29.82 in 10.0 mi West 15.0 mph 24.2 mph N/A   Overcast
9:35 PM 65.5 °F 54.1 °F 67% 29.83 in 10.0 mi West 20.7 mph 26.5 mph 0.01 in   Overcast
9:55 PM 65.5 °F 53.4 °F 65% 29.84 in 10.0 mi West 13.8 mph - 0.01 in Thunderstorm Mostly Cloudy
10:15 PM 66.0 °F 52.7 °F 62% 29.85 in 10.0 mi West 13.8 mph 19.6 mph N/A   Mostly Cloudy
10:35 PM 65.5 °F 53.2 °F 65% 29.86 in 10.0 mi West 10.4 mph - N/A   Overcast
10:55 PM 64.6 °F 51.3 °F 62% 29.87 in 10.0 mi West 13.8 mph - N/A   Mostly Cloudy
11:15 PM 64.4 °F 49.3 °F 58% 29.88 in 10.0 mi West 18.4 mph 25.3 mph N/A   Clear
11:35 PM 63.0 °F 49.5 °F 61% 29.89 in 10.0 mi WNW 15.0 mph - N/A   Clear
11:55 PM 63.1 °F 47.3 °F 56% 29.90 in 10.0 mi West 17.3 mph 23.0 mph N/A   Clear